Flag for Germany

Past Weather in Sankt Ingbert, Saarland, Germany — Yesterday and Last 2 Weeks

Now
91 °F

Passing clouds.


Feels Like: 89 °F
Forecast: 91 / 64 °F
Wind: 9 mph from East

Location: Saarbruecken / Ensheim

Current Time: Aug 10, 2020 at 6:42:11 pm

Latest Report: Aug 10, 2020 at 6:20 pm


Visibility: N/A

Pressure: 29.92 "Hg

Humidity: 26%

Dew Point: 52 °F

Location of Sankt IngbertLocation

Past Weather in Sankt Ingbert — Graph

°F

Sankt Ingbert Temperature Yesterday

Maximum temperature yesterday: 95 °F (at 3:20 pm)
Minimum temperature yesterday: 66 °F (at 6:20 am)
Average temperature yesterday: 81 °F

High & Low Weather Summary for the Past Weeks

 TemperatureHumidityPressure
High95 °F (Jul 31, 5:20 pm)94% (Jul 27, 6:50 am)30.15 "Hg (Jul 27, 6:50 am)
Low50 °F (Jul 29, 5:20 am)18% (Jul 30, 6:50 pm)29.83 "Hg (Jul 27, 7:50 pm)
Average72 °F53%30.03 "Hg
* Reported Jul 26 5:20 pm — Aug 10 5:20 pm, Sankt Ingbert. Weather by CustomWeather, © 2020

Note: Actual official high and low records may vary slightly from our data, if they occured in-between our weather recording intervals... More about our weather records

Sankt Ingbert Weather History for the Previous 24 Hours

Scroll right to see more
 ConditionsComfort  
Time TempWeatherWind HumidityBarometerVisibility
5:20 pm
Mon, Aug 10
91 °FPassing clouds.8 mph28%29.95 "HgN/A
4:50 pm91 °FPassing clouds.8 mph26%29.95 "HgN/A
4:20 pm91 °FPassing clouds.10 mph24%29.95 "HgN/A
3:50 pm91 °FSunny.7 mph26%29.95 "Hg10 mi
3:20 pm91 °FPassing clouds.12 mph26%29.95 "HgN/A
2:50 pm90 °FPassing clouds.8 mph29%29.98 "HgN/A
2:20 pm90 °FPassing clouds.9 mph27%29.98 "HgN/A
1:50 pm90 °FPassing clouds.8 mph27%29.98 "HgN/A
1:20 pm90 °FSunny.7 mph27%29.98 "Hg10 mi
12:50 pm88 °FSunny.6 mph33%29.98 "Hg10 mi
12:20 pm86 °FPassing clouds.6 mph38%29.98 "HgN/A
11:50 am86 °FPassing clouds.7 mph40%29.98 "HgN/A
11:20 am82 °FPassing clouds.7 mph45%29.98 "HgN/A
10:50 am81 °FPassing clouds.8 mph48%29.98 "HgN/A
10:20 am79 °FPassing clouds.7 mph51%30.01 "HgN/A
9:50 am79 °FPassing clouds.8 mph51%30.01 "HgN/A
9:20 am77 °FPassing clouds.8 mph54%29.98 "HgN/A
8:50 am75 °FSunny.8 mph54%29.98 "Hg10 mi
8:20 am75 °FSunny.9 mph54%29.98 "Hg10 mi
7:50 am73 °FSunny.8 mph57%29.98 "Hg10 mi
7:20 am70 °FPassing clouds.7 mph64%29.98 "HgN/A
6:50 am70 °FSunny.7 mph64%29.98 "Hg10 mi
6:20 am70 °FSunny.8 mph60%29.98 "Hg10 mi
5:50 am68 °FClear.8 mph64%29.98 "Hg10 mi
5:20 am68 °FClear.7 mph64%29.98 "Hg10 mi
4:50 am70 °FPassing clouds.5 mph60%29.98 "HgN/A
4:20 am70 °FClear.2 mph60%29.98 "Hg10 mi
3:50 am72 °FPassing clouds.5 mph57%30.01 "HgN/A
3:20 am72 °FClear.5 mph57%30.01 "Hg10 mi
2:50 am73 °FClear.8 mph50%30.01 "Hg10 mi
1:50 am73 °FClear.7 mph53%30.01 "Hg10 mi
1:20 am75 °FClear.9 mph50%30.01 "Hg10 mi
12:50 am75 °FClear.9 mph50%30.01 "Hg10 mi
12:20 am77 °FClear.8 mph47%30.01 "Hg10 mi
11:50 pm
Sun, Aug 9
79 °FClear.8 mph45%30.01 "Hg10 mi
11:20 pm79 °FClear.8 mph45%30.01 "Hg10 mi
10:50 pm79 °FClear.10 mph45%30.01 "Hg10 mi
10:20 pm81 °FClear.9 mph42%30.01 "Hg10 mi
9:50 pm81 °FClear.9 mph42%30.01 "Hg10 mi
9:20 pm82 °FPassing clouds.12 mph40%30.01 "HgN/A
8:50 pm84 °FPassing clouds.15 mph35%29.98 "HgN/A
8:20 pm86 °FPassing clouds.6 mph33%29.98 "HgN/A
7:50 pm90 °FSunny.6 mph29%29.98 "Hg10 mi
7:20 pm91 °FSunny.9 mph26%29.98 "Hg10 mi
6:50 pm91 °FPassing clouds.8 mph26%29.98 "HgN/A
6:20 pm93 °FPassing clouds.6 mph24%29.98 "HgN/A
Weather by CustomWeather, © 2020

See weather overview